[[{"header":{"parameterUnit":"m.s-1","parameterCategory":1,"la1":30.2991,"la2":30.254,"lo1":-89.0895,"lo2":-89.0444,"dy":0.0017,"dx":0.0017,"nx":28,"ny":28,"refTime":"2023-08-27T21:00:00:Z","depth":0,"parameterNumber":2,"parameterNumberName":"U-component_of_WINDS"},"data":[0,0,0,0,0,0,0,0,0,0,0,0,0,0,0,0,0,0,0,0,0,0,0,0,0,0,0,0,0,0,0,0,0,0,0,0,0,0,0,0,0,0,0,0,0,0,0,0,0,0,0,0,0,0,0,0,0,0,-2.2156,-2.2149,0,-2.1572,-2.1566,-2.1559,-2.1239,-2.1238,-2.1238,-2.1237,-2.0621,-2.0606,-2.059,0,0,0,0,0,0,0,0,0,0,0,0,0,-2.2982,-2.2969,-2.2156,-2.2149,-2.2142,-2.1573,-2.1565,-2.1557,-2.1239,-2.1238,-2.1238,-2.1237,-2.0626,-2.0608,-2.0589,0,0,0,0,0,0,0,0,0,0,0,0,0,-2.2534,-2.2965,-2.2157,-2.1915,-2.1888,-2.1575,-2.1565,-2.1555,-2.124,-2.1238,-2.1237,-2.1236,-2.0632,-2.061,-2.0586,-2.0464,0,0,-2.0514,-2.0504,0,0,0,0,0,0,0,0,-2.2559,-2.2503,-2.1958,-2.1931,-2.19,-2.1478,-2.163,-2.1189,-2.124,-2.1485,-2.1237,-2.1236,-2.0906,-2.086,-2.0752,-2.0436,-2.0409,-2.0512,-2.0498,-2.0488,-2.0481,0,0,0,0,0,0,0,-2.2591,-2.2527,-2.1924,-2.195,-2.1915,-2.1831,-2.1766,-2.1545,-2.1208,-2.1463,-2.1439,-2.1375,-2.089,-2.0776,-2.0735,-2.04,-2.0513,-2.0492,-2.0478,-2.0468,-1.9958,-1.9958,0,0,0,0,0,0,-2.2663,-2.2555,-2.1943,-2.1907,-2.2234,-2.1817,-2.1744,-2.1614,-2.121,-2.1148,-2.1377,-2.1363,-2.0816,-2.0763,-2.0713,-2.0543,-2.0488,-2.0466,-2.0453,-1.9957,-1.9958,-1.9959,0,0,0,0,0,0,-2.2682,-2.2612,-2.1966,-2.2224,-2.2136,-2.1805,-2.166,-2.1603,-2.1489,-2.1145,-2.1082,-2.1323,-2.0813,-2.0746,-2.0531,-2.0518,-2.0456,-2.0434,-1.9957,-1.9958,-1.9958,-2.0206,0,0,0,0,0,0,-2.2707,-2.262,-2.2573,-2.2226,-2.2124,-2.1798,-2.166,-2.1593,-2.1451,-2.1427,-2.1078,-2.1018,-2.0807,-2.0568,-2.0507,-2.0484,-2.0416,-1.9956,-1.9957,-1.9958,-2.0197,-2.0215,-2.0231,0,0,0,0,0,-2.2738,-2.2661,-2.2572,-2.25,-2.2058,-2.1798,-2.1739,-2.1503,-2.1452,-2.1399,-2.118,-2.1029,-2.0532,-2.0548,-2.0478,-2.0447,-1.9956,-1.9957,-1.9958,-2.019,-2.0212,-2.023,0,0,0,0,0,0,-2.3005,-2.261,-2.2507,-2.2317,-2.2095,-2.1745,-2.167,-2.1533,-2.1315,-2.13,-2.1012,-2.0936,-2.0748,-2.0576,-2.0602,-2.031,-2.0228,-2.0215,-2.0428,-2.0446,-2.0463,-2.0504,-2.0396,0,0,0,0,0,-2.3044,-2.2872,-2.2534,-2.2398,-2.2293,-2.2004,-2.1881,-2.172,-2.1475,-2.1377,-2.1141,-2.0905,-2.0695,-2.0562,-2.0349,-2.0175,-2.0092,-2.0119,-2.0136,-2.0152,-2.0141,-2.0037,-2.0045,-1.9963,-1.9963,-1.9963,0,0,-2.3117,-2.2881,-2.2787,-2.2446,-2.2254,-2.2079,-2.1925,-2.1743,-2.1608,-2.1347,-2.113,-2.0952,-2.0669,-2.0475,-2.0377,-2.0325,-2.0148,-2.0153,-2.0168,-2.0148,-2.0039,-2.0048,-2.0055,-1.9963,-1.9963,-1.9963,0,0,-2.3161,-2.2967,-2.2834,-2.2649,-2.2365,-2.2175,-2.2145,-2.1817,-2.169,-2.1472,-2.1273,-2.1108,-2.0752,-2.056,-2.0416,-2.0402,-2.0254,-2.0341,-2.0424,-2.0326,-2.0332,-2.0337,-2.0329,-2.033,-2.0333,-2.0334,-2.0334,0,-2.3286,-2.3018,-2.2781,-2.2613,-2.2469,-2.2236,-2.2097,-2.1927,-2.1586,-2.149,-2.1441,-2.0995,-2.0787,-2.0546,-2.0545,-2.0436,-2.0389,-2.0374,-2.0352,-2.0354,-2.0354,-2.0343,-2.0342,-2.0346,-2.0345,-2.0343,-2.0342,0,-2.3186,-2.3004,-2.293,-2.2617,-2.2464,-2.2312,-2.2049,-2.1923,-2.1779,-2.1594,-2.1375,-2.1122,-2.0856,-2.0788,-2.0641,-2.0527,-2.0504,-2.0409,-2.0317,-2.0378,-2.0363,-2.0358,-2.0363,-2.0359,-2.0355,-2.0352,0,0,-2.3369,-2.2938,-2.2913,-2.277,-2.2446,-2.2298,-2.2138,-2.1885,-2.1782,-2.1558,-2.1413,-2.1125,-2.1036,-2.0874,-2.0705,-2.062,-2.0625,-2.0533,-2.0522,-2.0556,-2.0481,-2.0553,-2.0552,-2.053,-2.0528,-2.0527,-2.0504,0,-2.3364,-2.3069,-2.2856,-2.264,-2.2469,-2.2251,-2.211,-2.1895,-2.1721,-2.1547,-2.1351,-2.1151,-2.105,-2.0951,-2.0859,-2.0644,-2.0605,-2.0644,-2.0387,-2.038,-2.0459,-2.0544,-2.0616,-2.0606,-2.0497,-2.0496,-2.0495,0,-2.3314,-2.3108,-2.288,-2.258,-2.2499,-2.2378,-2.2132,-2.1971,-2.1723,-2.1602,-2.1428,-2.1257,-2.1075,-2.1011,-2.0755,-2.0787,-2.067,-2.0551,-2.0545,-2.0505,-2.0437,-2.0503,-2.0597,-2.0595,-2.0484,-2.0485,-2.0486,0,-2.347,-2.3134,-2.2954,-2.2839,-2.2485,-2.2405,-2.2253,-2.2005,-2.187,-2.1655,-2.1563,-2.1329,-2.1199,-2.102,-2.079,-2.0765,-2.0558,-2.0473,-2.0448,-2.0455,-2.0407,-2.0411,-2.048,-2.0344,-2.0344,-2.0344,-2.0344,0,-2.3481,-2.3349,-2.302,-2.2908,-2.2755,-2.2512,-2.2364,-2.2193,-2.1977,-2.1826,-2.1623,-2.1485,-2.1193,-2.1019,-2.0839,-2.0655,-2.0598,-2.0492,-2.0444,-2.0506,-2.052,-2.042,-2.0412,-2.0343,-2.0343,-2.0344,-2.0344,0,-2.3623,-2.3399,-2.3188,-2.2876,-2.2795,-2.2695,-2.2424,-2.2307,-2.2128,-2.194,-2.1881,-2.1596,-2.1381,-2.1139,-2.0841,-2.072,-2.0547,-2.0481,-2.0633,-2.0604,-2.0592,-2.0595,-2.0592,-2.0579,-2.0461,-2.0462,-2.0464,0,-2.3643,-2.3537,-2.3218,-2.3107,-2.2964,-2.2785,-2.2649,-2.2409,-2.2274,-2.199,-2.1907,-2.168,-2.1484,-2.1152,-2.0915,-2.0688,-2.0611,-2.0627,-2.0574,-2.0642,-2.0606,-2.0614,-2.0601,-2.0639,-2.0641,-2.0643,-2.0645,0,-2.3701,-2.3598,-2.3412,-2.3191,-2.3037,-2.2848,-2.2651,-2.257,-2.2289,-2.2149,-2.1932,-2.1782,-2.1486,-2.1261,-2.1007,-2.0844,-2.0697,-2.0666,-2.0647,-2.0705,-2.0797,-2.0744,-2.0667,-2.0664,-2.0662,-2.0661,-2.066,-2.0659,-2.3777,-2.3676,-2.3438,-2.3239,-2.3069,-2.2892,-2.2768,-2.2578,-2.2395,-2.2139,-2.2008,-2.1793,-2.1552,-2.1197,-2.1042,-2.0867,-2.0818,-2.0792,-2.0783,-2.0779,-2.0796,-2.0833,-2.0821,-2.082,-2.0819,-2.0818,-2.0817,0,-2.3822,-2.3662,-2.3483,-2.3219,-2.3064,-2.2951,-2.2729,-2.2604,-2.2421,-2.2212,-2.2028,-2.1781,-2.1565,-2.1317,-2.1084,-2.0993,-2.092,-2.094,-2.094,-2.0905,-2.0855,-2.0893,-2.1003,-2.1003,-2.1003,-2.1003,-2.1003,-2.1003,-2.3827,-2.3649,-2.352,-2.3255,-2.3093,-2.2887,-2.277,-2.2605,-2.2438,-2.2174,-2.1997,-2.184,-2.1614,-2.1366,-2.1163,-2.1095,-2.1017,-2.1056,-2.0968,-2.0924,-2.0908,-2.0893,-2.0927,-2.1043,-2.1043,-2.1031,-2.1032,-2.1032]},{"header":{"parameterUnit":"m.s-1","parameterCategory":1,"la1":30.2991,"la2":30.254,"lo1":-89.0895,"lo2":-89.0444,"dy":0.0017,"dx":0.0017,"nx":28,"ny":28,"refTime":"2023-08-27T21:00:00:Z","depth":0,"parameterNumber":3,"parameterNumberName":"V-component_of_WINDS"},"data":[0,0,0,0,0,0,0,0,0,0,0,0,0,0,0,0,0,0,0,0,0,0,0,0,0,0,0,0,0,0,0,0,0,0,0,0,0,0,0,0,0,0,0,0,0,0,0,0,0,0,0,0,0,0,0,0,0,0,-1.1757,-1.1759,0,-1.1948,-1.1951,-1.1953,-1.2152,-1.2155,-1.2158,-1.2161,-1.2339,-1.2341,-1.2343,0,0,0,0,0,0,0,0,0,0,0,0,0,-1.1548,-1.1551,-1.1757,-1.176,-1.1762,-1.1948,-1.1951,-1.1953,-1.2152,-1.2155,-1.2159,-1.2162,-1.2338,-1.2341,-1.2343,0,0,0,0,0,0,0,0,0,0,0,0,0,-1.1678,-1.1551,-1.1757,-1.1884,-1.1897,-1.1948,-1.1951,-1.1954,-1.2151,-1.2155,-1.216,-1.2164,-1.2337,-1.234,-1.2343,-1.2278,0,0,-1.2353,-1.2354,0,0,0,0,0,0,0,0,-1.167,-1.1685,-1.1863,-1.1875,-1.189,-1.2031,-1.1943,-1.2062,-1.215,-1.2054,-1.2161,-1.2166,-1.2232,-1.2244,-1.227,-1.2287,-1.2294,-1.2353,-1.2355,-1.2357,-1.2358,0,0,0,0,0,0,0,-1.1661,-1.1678,-1.1832,-1.1865,-1.1882,-1.1926,-1.1949,-1.1966,-1.2116,-1.2063,-1.2078,-1.2099,-1.224,-1.2266,-1.2276,-1.2297,-1.2353,-1.2356,-1.2358,-1.2359,-1.2268,-1.2263,0,0,0,0,0,0,-1.1635,-1.1669,-1.1826,-1.1838,-1.1789,-1.1926,-1.1952,-1.1981,-1.2117,-1.2142,-1.2095,-1.2107,-1.2259,-1.2272,-1.2282,-1.2214,-1.2357,-1.236,-1.2361,-1.2272,-1.2267,-1.2262,0,0,0,0,0,0,-1.163,-1.1647,-1.1819,-1.1758,-1.1784,-1.1926,-1.1956,-1.1983,-1.201,-1.2142,-1.2167,-1.2095,-1.2263,-1.2278,-1.2279,-1.2223,-1.2361,-1.2364,-1.2277,-1.227,-1.2264,-1.2076,0,0,0,0,0,0,-1.1623,-1.1644,-1.1625,-1.1757,-1.1786,-1.1816,-1.1953,-1.1984,-1.2017,-1.2035,-1.2149,-1.2171,-1.2267,-1.2273,-1.2282,-1.223,-1.2366,-1.2282,-1.2274,-1.2266,-1.2087,-1.2064,-1.2043,0,0,0,0,0,-1.1615,-1.156,-1.1623,-1.164,-1.1765,-1.1812,-1.1829,-1.1945,-1.2012,-1.199,-1.2075,-1.2168,-1.2228,-1.2271,-1.2283,-1.2231,-1.2286,-1.2276,-1.2267,-1.2097,-1.2068,-1.2044,0,0,0,0,0,0,-1.1412,-1.158,-1.1651,-1.1639,-1.171,-1.1846,-1.1823,-1.1911,-1.196,-1.1974,-1.2112,-1.2136,-1.2119,-1.2176,-1.2221,-1.2174,-1.227,-1.2262,-1.2137,-1.2111,-1.2089,-1.2074,-1.2369,0,0,0,0,0,-1.1367,-1.1397,-1.154,-1.1515,-1.1548,-1.1679,-1.1703,-1.1788,-1.1865,-1.1894,-1.1979,-1.2046,-1.208,-1.2099,-1.2138,-1.2098,-1.2123,-1.2068,-1.2045,-1.2027,-1.2016,-1.1997,-1.1973,-1.223,-1.223,-1.223,0,0,-1.1271,-1.1367,-1.1376,-1.1476,-1.1542,-1.1564,-1.1702,-1.172,-1.1736,-1.1895,-1.1902,-1.1966,-1.205,-1.2029,-1.2024,-1.2075,-1.1952,-1.2014,-1.1998,-1.1999,-1.1984,-1.196,-1.1938,-1.2223,-1.2224,-1.2225,0,0,-1.1109,-1.1186,-1.1174,-1.1238,-1.1338,-1.1426,-1.1422,-1.1546,-1.1596,-1.1607,-1.1726,-1.1745,-1.1801,-1.1856,-1.189,-1.175,-1.1835,-1.1758,-1.164,-1.1619,-1.1599,-1.1582,-1.1528,-1.1507,-1.1749,-1.1748,-1.1748,0,-1.0976,-1.1021,-1.1154,-1.1166,-1.1204,-1.1357,-1.1341,-1.1395,-1.1499,-1.1519,-1.1578,-1.1652,-1.1719,-1.1712,-1.1678,-1.1703,-1.1699,-1.1744,-1.1593,-1.1576,-1.1562,-1.1512,-1.1492,-1.1738,-1.1739,-1.174,-1.1741,0,-1.085,-1.0879,-1.0856,-1.096,-1.0996,-1.0993,-1.1121,-1.1141,-1.1222,-1.1302,-1.1308,-1.1395,-1.1453,-1.1459,-1.1535,-1.1462,-1.149,-1.1568,-1.1667,-1.1525,-1.148,-1.1462,-1.1723,-1.1727,-1.173,-1.1733,0,0,-1.0562,-1.0743,-1.0732,-1.078,-1.0902,-1.0924,-1.0926,-1.099,-1.1002,-1.1069,-1.1071,-1.1117,-1.119,-1.1229,-1.1314,-1.1296,-1.1175,-1.1377,-1.1381,-1.1333,-1.1095,-1.1032,-1.1009,-1.1235,-1.1232,-1.123,-1.1087,0,-1.0418,-1.0439,-1.056,-1.0543,-1.0569,-1.0714,-1.0716,-1.0787,-1.0862,-1.089,-1.0971,-1.1,-1.1097,-1.1121,-1.1111,-1.1192,-1.1128,-1.1205,-1.1232,-1.1231,-1.1203,-1.0986,-1.0921,-1.0782,-1.107,-1.1068,-1.1066,0,-1.0253,-1.0316,-1.0302,-1.0425,-1.044,-1.044,-1.0507,-1.0535,-1.0617,-1.0673,-1.0717,-1.0815,-1.082,-1.0916,-1.0923,-1.0972,-1.0991,-1.1032,-1.103,-1.1033,-1.1137,-1.0979,-1.0741,-1.0717,-1.104,-1.1042,-1.1044,0,-1.0039,-1.012,-1.0124,-1.0161,-1.0304,-1.03,-1.0358,-1.0447,-1.0477,-1.0533,-1.0553,-1.0607,-1.0635,-1.0673,-1.078,-1.0841,-1.0773,-1.0878,-1.0814,-1.081,-1.0789,-1.0788,-1.0545,-1.0807,-1.0807,-1.0808,-1.0808,0,-0.9864,-0.9849,-1.003,-1.0031,-1.0017,-1.0155,-1.0135,-1.0207,-1.0284,-1.0297,-1.0425,-1.0433,-1.0577,-1.0599,-1.0683,-1.0673,-1.0686,-1.0726,-1.0748,-1.0713,-1.0707,-1.0724,-1.0734,-1.0802,-1.0804,-1.0805,-1.0806,0,-0.9622,-0.9743,-0.9755,-0.9892,-0.9926,-0.9909,-1.0024,-1.0027,-1.0111,-1.0126,-1.0137,-1.0266,-1.03,-1.0413,-1.0472,-1.0528,-1.0491,-1.0535,-1.0464,-1.0478,-1.0405,-1.0409,-1.0161,-1.0134,-1.0415,-1.0413,-1.041,0,-0.95,-0.9493,-0.9631,-0.9652,-0.9707,-0.9739,-0.9772,-0.9906,-0.9933,-1.0028,-1.0018,-1.0064,-1.0107,-1.0152,-1.0248,-1.0293,-1.0337,-1.0248,-1.0344,-1.0309,-1.0331,-1.0329,-1.0327,-1.0224,-1.0221,-1.0218,-1.0215,0,-0.927,-0.9331,-0.9377,-0.9443,-0.948,-0.9537,-0.9601,-0.9609,-0.9758,-0.9781,-0.9821,-0.9855,-0.9919,-0.996,-1.0022,-1.0076,-1.0167,-1.0185,-1.0172,-1.0134,-1.0091,-1.011,-1.0403,-1.0189,-1.0191,-1.0193,-1.0195,-1.0196,-0.9082,-0.9082,-0.918,-0.9226,-0.9289,-0.9346,-0.9356,-0.9444,-0.9481,-0.9547,-0.9623,-0.9652,-0.9733,-0.9827,-0.9874,-0.9895,-0.9945,-0.9927,-0.9921,-0.9914,-0.9895,-1.0092,-0.9907,-0.9908,-0.9908,-0.9909,-0.991,0,-0.8856,-0.8927,-0.8968,-0.9056,-0.9091,-0.9183,-0.9258,-0.9279,-0.9305,-0.9376,-0.9418,-0.9461,-0.9502,-0.9602,-0.9651,-0.9648,-0.9691,-0.9656,-0.9655,-0.9665,-0.9849,-0.9854,-0.962,-0.962,-0.962,-0.962,-0.962,-0.962,-0.8742,-0.8746,-0.8819,-0.8854,-0.8924,-0.8959,-0.8993,-0.9044,-0.9102,-0.9146,-0.9183,-0.9251,-0.9332,-0.9388,-0.9428,-0.9456,-0.9466,-0.9416,-0.9456,-0.9625,-0.9652,-0.9679,-0.9684,-0.9418,-0.9418,-0.9271,-0.9269,-0.9268]}]]